Regional Weather Roundup
Issued by NWS

Home | Current Version | Previous Version | Text Only | Print | Product List | Glossary Off
Versions: 1 2 3 4 5 6 7 8 9 10 11 12 13 14 15 16 17 18 19 20 21 22 23 24 25 26 27 28 29 30 31 32 33 34 35 36 37 38 39 40 41 42 43 44 45 46 47 48 49 50

000
ASUS43 KMKX 280500
RWRWI

WISCONSIN REGIONAL WEATHER ROUNDUP
NATIONAL WEATHER SERVICE MILWAUKEE/SULLIVAN WI
1200 AM CDT WED JUN 28 2017

NOTE: "FAIR" INDICATES FEW OR NO CLOUDS BELOW 12,000 FEET WITH NO
SIGNIFICANT WEATHER AND/OR OBSTRUCTIONS TO VISIBILITY.

WIZ001-002-006>008-014>016-023>028-280600-
NORTHWEST WISCONSIN

CITY           SKY/WX    TMP DP  RH WIND       PRES   REMARKS
SUPERIOR ARPT  NOT AVBL
ASHLAND        CLEAR     59  48  67 S8        29.86S
HAYWARD        PTCLDY    62  46  55 S8        29.87F
SIREN          CLOUDY    60  47  63 CALM      29.85F
CUMBERLAND     CLOUDY    55  45  67 SE6       29.88R
RICE LAKE      CLOUDY    60  47  62 SE8       29.89S
CHETEK         CLOUDY    60  48  65 SE9       29.89R
LADYSMITH      CLOUDY    60  48  65 SE6       29.92F
EAU CLAIRE     NOT AVBL
MENOMONIE      MOCLDY    59  49  70 E7        29.88S
NEW RICHMOND   CLOUDY    64  45  50 S8        29.86R
OSCEOLA        CLOUDY    65  46  50 SE9       29.87R
$$

WIZ003>005-009-010-017-018-280600-
NORTH CENTRAL WISCONSIN

CITY           SKY/WX    TMP DP  RH WIND       PRES   REMARKS
MANITOWISH WTR CLEAR     55  50  84 S5        29.92S
ARBOR VITAE    CLEAR     57  49  75 S6        29.93S
WOODRUFF       CLEAR     57  49  75 S6        29.93S
RHINELANDER    CLEAR     57  50  77 SW6       29.95F
EAGLE RIVER    PTCLDY    58  46  64 CALM      29.94S
LAND O LAKES   MOCLDY    57  48  71 S3        29.94F
PHILLIPS       CLOUDY    57  48  73 S8        29.91F
TOMAHAWK       NOT AVBL
MEDFORD        CLEAR     55  48  76 S6        29.94S
MERRILL        CLEAR     56  49  76 S3        29.97R
$$

WIZ029-030-035-036-043>047-280600-
CENTRAL WISCONSIN

CITY           SKY/WX    TMP DP  RH WIND       PRES   REMARKS
WAUSAU           N/A    N/A N/A N/A MISG      29.96R
MOSINEE        CLEAR     54  50  87 S5        29.98S
MARSHFIELD     CLEAR     55  48  77 S6        29.95S
STEVENS POINT  CLEAR     52  49  89 CALM      29.98S
WAUPACA        CLEAR     57  53  85 CALM      29.99R
WAUTOMA        CLEAR     53  51  93 CALM      29.99S
WISC RAPIDS    CLEAR     57  48  72 S6        29.98S
CAMP DOUGLAS   CLEAR     51  48  88 SE5       29.96S
$$

WIZ011>013-019>022-031-037>040-048>050-280600-
NORTHEAST WISCONSIN

CITY           SKY/WX    TMP DP  RH WIND       PRES   REMARKS
ANTIGO         CLEAR     55  49  78 SW7       29.98R
SHAWANO        PTCLDY    63  50  63 CALM      29.96S
OCONTO         MOCLDY    61  49  64 S3        29.96R
STURGEON BAY     N/A     60  51  72 S8        29.98R
GREEN BAY      CLEAR     59  54  83 S6        29.98S
MANITOWOC      NOT AVBL
APPLETON       CLEAR     59  45  58 SW7       29.98R
CLINTONVILLE   CLEAR     55  48  76 SW3       29.97S
OSHKOSH        CLEAR     60  50  69 S7        29.99R
$$

WIZ032>034-041-042-053>061-280600-
SOUTHWEST WISCONSIN

CITY           SKY/WX    TMP DP  RH WIND       PRES   REMARKS
LA CROSSE      CLEAR     69  49  48 S10       29.90F
SPARTA         CLEAR     51  48  91 CALM      29.95F
VIROQUA        CLEAR     60  48  65 S7        29.97S
BOSCOBEL       CLEAR     55  52  89 CALM      29.97S
PRAIRIE DU CHI MOCLDY    61  47  59 E5        29.96S
PLATTEVILLE    CLEAR     59  49  70 SE7       30.00R
$$

WIZ056-057-062-063-064-067-068-280600-
SOUTH CENTRAL WISCONSIN

CITY           SKY/WX    TMP DP  RH WIND       PRES   REMARKS
REEDSBURG      PTCLDY    59  49  68 S5        29.98S
BARABOO/DELLS  PTCLDY    56  48  72 SW3       29.99R
LONE ROCK      NOT AVBL
MINERAL POINT  CLEAR     59  48  67 SE5       30.00R
MADISON        CLEAR     64  48  56 S8        30.00R
MIDDLETON      CLEAR     55  49  80 SW3       30.01R
WATERTOWN      NOT AVBL
MONROE         CLEAR     59  46  63 S7        30.01R
JANESVILLE     CLEAR     61  46  59 S5        30.01R
$$

WIZ051-052-058>065-066-070>072-280600-
SOUTHEAST WISCONSIN

CITY           SKY/WX    TMP DP  RH WIND       PRES   REMARKS
MILWAUKEE      PTCLDY    62  49  62 S6        30.02R
WAUKESHA       CLEAR     57  46  67 S5        30.03S
MILWAUKEE/TIMM PTCLDY    61  45  55 S7        30.03R
RACINE         PTCLDY    60  50  69 S3        30.04S
KENOSHA        CLEAR     60  49  66 S6        30.03R
FOND DU LAC    CLEAR     59  48  67 S6        30.00R
SHEBOYGAN      CLEAR     55  52  89 SW5       30.00S
WEST BEND      CLEAR     55  50  82 CALM      30.02R
JUNEAU         CLEAR     59  48  67 S3        30.02R
$$

LSZ147-162-280600-
LAKE SUPERIOR

STATION/POSITION TIME  TEMP    WIND        PRES    WAVE
                       AIR SEA DIR/SP/G            HT/PER
                 (UTC) (F)     (DEG/KT/KT) (MB)    (FT/S)
W MID LAKE BUOY  0350   47 39  200/ 10/ 12 1010.5F   0
DEVILS ISLAND    0400   67     190/ 11/ 15 1010.0F
SAXON HARBOR     0430   58     210/  4/  6 1010.8F
$$

LMZ867-665-643>646-280600-
LAKE MICHIGAN

STATION/POSITION TIME  TEMP    WIND        PRES    WAVE
                       AIR SEA DIR/SP/G            HT/PER
                 (UTC) (F)     (DEG/KT/KT) (MB)    (FT/S)
CHAMBERS ISLAND  0440   65     180/  4/  9 1013.9R
S GREEN BAY BUOY 0430   67     210/ 12/ 14 1014.4R
N MID LAKE BUOY  0350   57 54  190/ 14/ 16 1014.8S   2/ 4
NORTHPORT PIER   0440   60     170/  2/  8 1014.2S
KEWAUNEE LAKESHO 0430   54     170/  6/  6 1015.0R
SHEBOYGAN LAKESH 0400   62     190/ 13/ 14 1015.5S
PORT WASHINGTON  0430   56      CALM  /  2 1016.9S
ATWATER BUOY     0309   61 57  170/  8/ 10 1016.1R
MILWAUKEE LAKESH 0430   64     200/  9/ 11   N/A
S MID LAKE BUOY  0350   64 61  160/ 10/ 12 1016.9R   1/ 3
KENOSHA   LAKESH 0400   63     180/ 11/ 14 1016.6
$$

TC  - TEMPERATURE IN CELSIUS
VSB - VISIBILITY IN STATUTE MILES
WCI - WIND CHILL INDEX
HX  - HEAT INDEX





USA.gov is the U.S. government's official web portal to all federal, state and local government web resources and services.